[Iaude] MPEC K144: 2024 KG1 [a=1.29,e=0.27,i=11.3,H=23.3]

mpec at cfa.harvard.edu mpec at cfa.harvard.edu
Fri May 31 01:17:32 EDT 2024


M.P.E.C. 2024-K144                                 Issued 2024 May 31, 05:16 UT

     The Minor Planet Electronic Circulars contain information on unusual
         minor planets, routine data on comets and natural satellites,
         and occasional editorial announcements.  They are published
    on behalf of Division F of the International Astronomical Union by the
          Minor Planet Center, Smithsonian Astrophysical Observatory,
                          Cambridge, MA 02138, U.S.A.
			  
             Prepared using the Tamkin Foundation Computer Network

                              MPC at CFA.HARVARD.EDU
            URL https://www.minorplanetcenter.net/    ISSN 1523-6714

                                    2024 KG1                                    


Observations:
     K24K01G* C2024 05 29.33399914 45 08.622-15 01 33.77         20.94wXEK144F51
     K24K01G  C2024 05 29.34631514 45 07.050-15 00 49.25         21.55wXEK144F51
     K24K01G  C2024 05 29.37099814 45 03.866-14 59 19.84         21.45wXEK144F51
     K24K01G  C2024 05 29.47732814 44 50.379-14 52 51.40         21.15GVEK144F52
     K24K01G  C2024 05 29.47815314 44 50.276-14 52 48.47         21.08GVEK144F52
     K24K01G KC2024 05 30.23837214 43 27.800-14 06 36.97         20.76GVEK144I52
     K24K01G KC2024 05 30.24032514 43 27.498-14 06 30.53         21.01GVEK144I52
     K24K01G KC2024 05 30.24224814 43 27.221-14 06 23.29         20.66GVEK144I52
     K24K01G KC2024 05 30.24417414 43 27.019-14 06 15.84         20.90GVEK144I52
     K24K01G  C2024 05 30.27152414 43 23.468-14 04 35.26         20.9 GVEK144H01
     K24K01G  C2024 05 30.27535614 43 23.001-14 04 21.09         21.1 GVEK144H01
     K24K01G  C2024 05 30.29597114 43 20.446-14 03 04.72         21.3 GVEK144H01
     K24K01G  C2024 05 30.30023014 43 19.911-14 02 48.84         21.1 GVEK144H01
     K24K01G KC2024 05 31.15915514 41 47.37 -13 09 45.3          21.8 GVEK144H21
     K24K01G KC2024 05 31.16638214 41 46.45 -13 09 17.8          21.3 GVEK144H21
     K24K01G KC2024 05 31.17023714 41 45.98 -13 09 03.6          21.7 GVEK144H21
     K24K01G KC2024 05 31.19408514 41 44.050-13 07 31.90         21.43GVEK144I52
     K24K01G KC2024 05 31.19918914 41 43.390-13 07 12.30         21.54GVEK144I52
     K24K01G KC2024 05 31.20428814 41 42.790-13 06 52.70               VEK144I52

Observer details:
F51 Pan-STARRS 1, Haleakala.  Observers J. Herman, T. Lowe, P. Minguez, A.
    Schultz, I. Smith.  Measurers K. Chambers, T. de Boer, J. Fairlamb, H.
    Gao, M. Huber, C.-C. Lin, E. Magnier, Y. Ramanjooloo, R. Wainscoat, R.
    Weryk.  1.8-m Ritchey-Chretien + CCD.
F52 Pan-STARRS 2, Haleakala.  Observers J. Herman, T. Lowe, P. Minguez, A.
    Schultz, I. Smith.  Measurers K. Chambers, T. de Boer, J. Fairlamb, H.
    Gao, M. Huber, C.-C. Lin, E. Magnier, Y. Ramanjooloo, R. Wainscoat, R.
    Weryk.  1.8-m Ritchey-Chretien + CCD.
H01 Magdalena Ridge Observatory, Socorro.  Observers W. H. Ryan, E. V. Ryan.
    Measurer W. H. Ryan.  2.4-m f/8.9 Ritchey-Chretien + CCD.
H21 Astronomical Research Observatory, Westfield.  Observer R. Holmes.
    Measurers T. Linder, R. Holmes, L. Horn.  1.3-m f/4.0 astrograph + CCD.
I52 Steward Observatory, Mt. Lemmon Station.  Observer V. F. Carvajal.
    Measurers T. Beuden, V. F. Carvajal, D. Fay, J. B. Fazekas, D. C. Fuls, A.
    R. Gibbs, A. D. Grauer, H. Groeller, J. K. Hogan, R. A. Kowalski, S. M.
    Larson, G. J. Leonard, D. Rankin, R. L. Seaman, F. C. Shelly, K. W.
    Wierzchos.  1.0-m prime focus + CCD.

Orbital elements:
2024 KG1                                                 Earth MOID = 0.1063 AU
Epoch 2024 Mar. 31.0 TT = JDT 2460400.5                 MPC                     
M 257.74636              (2000.0)            P               Q                  
n   0.67553035     Peri.   93.76137     +0.90245199     +0.39396874             
a   1.2863904      Node   243.10724     -0.42999991     +0.84829648             
e   0.2693683      Incl.   11.26801     +0.02608612     +0.35381029             
P   1.46           H   23.34          G   0.15           U   8                  
Residuals in seconds of arc
240529 F51  0.1-  0.0     240530 I52  0.7-  0.4-    240531 H21  0.2-  0.2+
240529 F51  0.1+  0.0     240530 I52  0.1-  0.1-    240531 H21  0.2-  0.0
240529 F51  0.1-  0.0     240530 H01  0.0   0.2+    240531 I52  0.6+  1.0-
240529 F52  0.0   0.0     240530 H01  0.1+  0.2+    240531 I52  0.2+  0.4-
240529 F52  0.0   0.1-    240530 H01  0.1+  0.2+    240531 I52  0.6+  0.2+
240530 I52  0.7+  0.2+    240530 H01  0.0   0.2+
240530 I52  0.2-  0.6-    240531 H21  0.3+  0.3-

Ephemeris:
2024 KG1                 a,e,i = 1.29, 0.27, 11                  q = 0.9399
Date    TT    R. A. (2000) Decl.     Delta      r    Elong.  Phase     V
2024 05 01    15 33 26.7 -33 23 49   0.3389  1.3265   157.2    17.1    22.5
...
2024 05 16    15 10 44.8 -26 19 33   0.2571  1.2658   171.3     7.0    21.4
...
2024 05 24    14 55 20.9 -20 05 07   0.2269  1.2323   164.0    13.1    21.3
...
2024 05 30    14 43 54.2 -14 20 46   0.2108  1.2069   154.2    21.5    21.4
2024 05 31    14 42 04.6 -13 19 08   0.2086  1.2027   152.4    23.0    21.4
2024 06 01    14 40 17.0 -12 16 33   0.2066  1.1985   150.7    24.5    21.4
...
2024 06 07    14 30 26.0 -05 46 47   0.1975  1.1730   140.0    33.8    21.6
...
2024 06 15    14 20 28.5 +03 01 35   0.1921  1.1393   126.0    46.2    21.8
...
2024 06 30    14 12 23.6 +18 09 21   0.1942  1.0785   103.4    66.5    22.3

A. U. Tomatic                (C) Copyright 2024 MPC           M.P.E.C. 2024-K144





More information about the Iaude mailing list